User: anonymous   Login
Location: Lobos
(35.3000°S, 59.0940°W)
Time: 22:43:33
(UTC-03:00)
Language:

NOAA 18 - Orbit

View from above orbital plane
View from above orbital plane
View from above satellite
View from above satellite

Ground track
Ground track

The orbit data is extracted from the following two-line orbital elements,

1 28654U 05018A   20329.74335669  .00000107  00000-0  82103-4 0  9994
2 28654  99.0244  27.5117 0015002 137.3229 222.9111 14.12558238799634
Epoch (UTC): 24 November 2020 17:50:26
Eccentricity: 0.0015002
inclination: 99.0244°
perigee height: 840 km
apogee height: 861 km
right ascension of ascending node: 27.5117°
argument of perigee: 137.3229°
revolutions per day: 14.12558238
mean anomaly at epoch: 222.9111°
orbit number at epoch: 79963

The dashed part of the orbit path shows where the satellite is in the earth's shadow,  

DLR